TimeMDT,TemperatureF,Dew PointF,Humidity,Sea Level PressureIn,VisibilityMPH,Wind Direction,Wind SpeedMPH,Gust SpeedMPH,PrecipitationIn,Events,Conditions,WindDirDegrees,DateUTC
12:56 AM,37.0,26.1,65,29.92,-9999.0,NW,19.6,27.6,N/A,,Unknown,310,2012-10-09 06:56:00
1:56 AM,35.1,28.0,76,29.96,-9999.0,WNW,15.0,-,N/A,,Unknown,300,2012-10-09 07:56:00
2:56 AM,36.0,27.0,70,29.95,-9999.0,WNW,16.1,-,N/A,,Unknown,290,2012-10-09 08:56:00
3:56 AM,36.0,28.0,73,29.95,-9999.0,West,13.8,-,N/A,,Unknown,280,2012-10-09 09:56:00
4:56 AM,37.0,28.0,70,29.96,-9999.0,WNW,19.6,-,N/A,,Unknown,290,2012-10-09 10:56:00
5:56 AM,34.0,28.9,82,29.98,-9999.0,WNW,15.0,-,N/A,,Unknown,290,2012-10-09 11:56:00
6:56 AM,35.1,28.9,78,29.99,-9999.0,WNW,17.3,-,N/A,,Unknown,300,2012-10-09 12:56:00
7:56 AM,37.0,30.0,76,30.01,-9999.0,NW,19.6,-,N/A,,Unknown,320,2012-10-09 13:56:00
8:56 AM,36.0,25.0,64,30.03,-9999.0,NNW,21.9,26.5,N/A,,Unknown,330,2012-10-09 14:56:00
10:56 AM,39.9,24.1,53,30.06,-9999.0,NW,19.6,27.6,N/A,,Unknown,320,2012-10-09 16:56:00
11:56 AM,44.1,21.9,42,30.05,-9999.0,NW,28.8,39.1,N/A,,Unknown,320,2012-10-09 17:56:00
12:56 PM,43.0,18.0,37,30.06,-9999.0,NW,26.5,39.1,N/A,,Unknown,310,2012-10-09 18:56:00
1:56 PM,43.0,18.0,37,30.06,-9999.0,NW,26.5,36.8,N/A,,Unknown,320,2012-10-09 19:56:00
2:56 PM,44.1,19.9,38,30.06,-9999.0,WNW,20.7,-,N/A,,Unknown,300,2012-10-09 20:56:00
3:56 PM,46.0,21.0,37,30.05,-9999.0,NW,23.0,31.1,N/A,,Unknown,320,2012-10-09 21:56:00
4:56 PM,44.1,21.0,40,30.05,-9999.0,NW,20.7,-,N/A,,Unknown,320,2012-10-09 22:56:00
5:56 PM,43.0,19.9,40,30.06,-9999.0,NW,17.3,-,N/A,,Unknown,310,2012-10-09 23:56:00
6:56 PM,37.0,21.0,52,30.09,-9999.0,WNW,13.8,-,N/A,,Unknown,290,2012-10-10 00:56:00
7:56 PM,33.1,25.0,72,30.11,-9999.0,West,9.2,-,N/A,,Unknown,280,2012-10-10 01:56:00
8:56 PM,32.0,26.1,79,30.11,-9999.0,West,8.1,-,N/A,,Unknown,280,2012-10-10 02:56:00
9:56 PM,35.1,27.0,72,30.10,-9999.0,West,6.9,-,N/A,,Unknown,270,2012-10-10 03:56:00
10:56 PM,36.0,28.9,76,30.09,-9999.0,West,6.9,-,N/A,,Unknown,280,2012-10-10 04:56:00
11:56 PM,37.0,28.9,73,30.07,-9999.0,WSW,4.6,-,N/A,,Unknown,250,2012-10-10 05:56:00